Dewpoint
32 33 33 33 34 34 34 36 42 45 50 52 52 51 51 57 57 58 59 59 59 60 61 63 64 65 66 68 69 70 70 72 72 71 71 70 70 70 70 71 71 70 70 73
32 34 33 32 33 34 34 34 34 39 46 50 50 50 51 57 57 56 57 59 58 58 59 62 63 64 65 66 68 70 70 72 72 71 71 71 71 75 71 71 71 71 71 72
33 34 32 30 32 33 34 34 34 33 46 49 48 46 50 52 57 58 57 57 57 57 57 59 62 63 64 66 68 69 71 71 72 72 71 72 73 73 72 72 71 71 72 71
30 30 30 26 26 29 31 35 34 42 41 38 46 34 48 51 54 56 57 57 57 58 58 59 61 62 63 65 67 69 71 72 72 73 71 72 70 71 75 71 71 71 73 72
35 29 26 28 27 33 31 33 30 40 39 40 43 38 39 50 50 53 56 56 57 57 57 58 59 61 64 65 66 68 71 72 72 73 73 71 71 70 71 70 72 72 73 73
31 27 25 28 27 30 30 27 27 33 31 30 30 37 31 33 44 49 52 55 57 57 58 59 60 62 64 65 66 68 70 71 72 72 72 73 73 72 71 71 73 75 72 72
26 26 22 22 23 30 28 24 27 24 23 23 28 37 32 40 46 49 51 52 55 57 59 60 61 62 65 66 66 67 70 71 72 71 72 72 72 72 73 73 70 72 72 71
31 29 23 19 21 32 34 28 22 24 23 23 35 29 28 46 50 53 55 55 57 60 61 60 62 63 65 66 67 67 69 71 71 71 72 72 72 72 71 72 72 72 75 71
24 24 17 17 17 21 23 29 26 21 23 23 27 36 41 46 47 53 56 58 59 60 61 63 63 63 63 65 67 68 70 70 71 71 71 71 72 72 70 71 73 73 74 72
23 23 16 27 30 28 22 25 20 24 24 23 27 38 33 41 48 54 55 57 60 60 61 63 63 63 64 64 68 69 71 70 70 69 69 68 68 68 68 70 71 71 73 72
18 18 20 23 32 28 25 22 24 23 24 22 21 26 44 46 51 55 56 57 59 61 62 64 67 68 66 65 67 68 68 69 67 68 68 68 68 68 68 69 70 70 72 72
21 16 19 16 35 37 34 33 26 23 32 33 30 27 44 53 53 56 57 60 62 62 63 64 65 67 66 66 66 66 68 68 68 67 67 67 67 67 68 68 69 70 68 70
23 19 19 26 32 36 34 35 33 29 33 38 28 25 51 55 55 58 58 61 62 62 64 65 66 67 68 66 65 66 66 66 66 66 67 67 67 66 66 66 67 68 68 68
32 20 21 16 25 33 34 35 34 30 30 33 32 32 42 52 54 56 59 62 61 62 62 63 64 66 67 66 67 66 66 66 65 66 66 67 68 67 67 67 66 68 69 70
22 21 30 33 32 33 33 34 34 33 33 31 32 35 39 50 53 55 56 59 59 60 61 60 61 63 65 66 66 66 66 66 66 65 66 67 68 68 68 69 68 68 67 66
34 33 39 37 37 36 32 34 34 35 35 35 36 37 46 52 55 53 56 59 57 58 59 60 63 64 63 65 66 67 65 65 66 66 66 67 67 66 66 66 65 66 66 66
34 36 38 28 38 36 31 34 34 35 37 34 35 39 50 52 52 53 55 58 60 59 58 61 63 63 63 63 63 63 64 65 64 64 63 63 63 63 63 62 63 63 63 64
41 41 40 36 37 30 32 34 34 35 37 39 44 47 50 53 53 55 58 61 62 62 62 62 61 62 62 62 61 61 61 62 61 60 60 59 60 61 61 60 59 60 59 59
39 42 39 37 33 33 30 39 39 37 34 42 45 49 51 54 54 56 58 60 63 61 61 60 60 60 60 59 59 59 58 58 57 56 54 55 56 55 55 55 55 56 55 55
33 43 37 39 33 31 34 36 40 38 27 44 49 51 53 53 47 55 61 59 58 59 58 58 58 57 58 58 57 56 54 54 53 53 53 53 53 53 52 52 52 52 52 51
37 38 35 37 34 33 34 40 40 29 30 46 51 53 54 52 54 58 59 57 56 56 55 55 55 54 54 54 53 53 52 51 52 51 50 50 50 50 50 51 50 50 50 50
39 37 34 35 35 29 41 43 36 42 47 53 56 55 57 57 57 57 57 55 54 53 52 52 51 51 51 51 51 51 51 50 50 50 49 50 50 46 46 50 50 50 49 48
35 36 37 37 36 45 47 46 48 47 51 55 57 56 57 57 57 56 55 54 53 52 51 50 50 50 51 52 51 50 51 50 49 49 49 48 48 47 48 48 47 43 45 43
41 43 42 44 46 47 49 49 49 51 52 55 56 56 57 57 56 55 53 52 51 50 50 50 50 49 50 51 50 50 50 50 48 48 48 48 47 45 46 43 41 41 40 41
41 46 47 44 48 49 49 50 51 51 53 55 56 56 56 55 54 53 52 51 51 51 50 50 50 49 50 50 49 48 49 49 47 48 48 48 46 46 45 45 43 42 44 41
42 46 41 34 48 51 49 52 52 53 54 55 54 54 54 54 52 52 51 51 50 49 50 50 50 49 49 49 49 50 50 50 48 47 45 45 45 45 44 42 42 44 44 43
Lifted_Index
-1 -1 -0 -0 0 0 0 -0 -1 -2 -3 -4 -4 -4 -4 -4 -4 -4 -4 -4 -4 -4 -3 -3 -3 -3 -3 -3 -3 -3 -3 -4 -4 -4 -4 -4 -4 -3 -3 -3 -2 -2 -2 -3
-1 -1 -0 -0 0 0 0 0 -0 -1 -2 -3 -3 -3 -4 -4 -4 -4 -4 -4 -4 -3 -3 -3 -3 -3 -3 -3 -3 -3 -3 -4 -4 -4 -4 -4 -4 -4 -3 -3 -3 -3 -3 -3
-2 -1 -1 -0 -0 0 0 0 0 -0 -1 -2 -2 -2 -3 -4 -4 -4 -4 -4 -4 -3 -3 -3 -3 -3 -3 -3 -3 -4 -4 -4 -4 -4 -4 -4 -4 -4 -4 -4 -4 -4 -3 -3
-2 -2 -1 -1 -0 -0 -0 -0 0 -0 -1 -1 -2 -2 -2 -3 -4 -4 -4 -4 -4 -4 -3 -3 -3 -3 -4 -4 -4 -4 -4 -4 -4 -4 -4 -4 -4 -4 -4 -4 -4 -4 -4 -4
-1 -2 -1 -1 -0 -0 -0 -0 -0 -0 -0 -1 -1 -1 -1 -2 -2 -3 -4 -4 -4 -4 -4 -3 -3 -3 -4 -4 -4 -4 -4 -4 -4 -4 -4 -4 -4 -4 -5 -5 -5 -4 -4 -4
-1 -1 -1 -1 -0 0 0 -0 -0 -0 -0 -0 -0 -1 -0 -0 -1 -2 -3 -3 -4 -4 -3 -3 -3 -3 -3 -4 -4 -4 -4 -4 -4 -4 -4 -4 -4 -4 -4 -5 -5 -5 -5 -4
-1 -1 -1 -0 -0 0 0 0 -0 -0 -0 -0 -0 -0 -0 0 -0 -1 -1 -2 -3 -3 -3 -3 -3 -3 -3 -4 -4 -5 -5 -5 -5 -4 -4 -4 -4 -4 -4 -4 -5 -5 -5 -4
-0 -0 -0 -0 0 0 0 0 0 -0 -1 -1 -0 -0 -0 -0 -1 -1 -1 -2 -2 -2 -3 -3 -3 -3 -3 -4 -4 -5 -5 -6 -5 -5 -5 -4 -4 -4 -4 -4 -4 -5 -4 -4
1 0 0 0 0 0 0 1 0 -0 -0 -1 -0 -0 -1 -1 -1 -2 -2 -2 -2 -2 -3 -3 -3 -3 -3 -3 -4 -5 -6 -6 -5 -5 -5 -5 -5 -5 -4 -4 -4 -5 -4 -4
1 1 1 1 0 0 0 0 0 0 -0 -0 -0 -1 -1 -1 -2 -2 -2 -2 -2 -2 -3 -3 -3 -3 -3 -3 -3 -4 -5 -5 -5 -5 -4 -4 -5 -4 -4 -4 -4 -4 -4 -4
2 1 1 0 0 -0 -0 0 0 0 -0 -0 -0 -0 -1 -1 -2 -2 -2 -2 -2 -2 -3 -3 -4 -3 -3 -2 -2 -3 -4 -4 -5 -4 -4 -4 -4 -3 -3 -3 -3 -3 -3 -4
2 1 0 0 0 0 0 0 0 -0 -0 -1 -0 -0 -1 -2 -2 -3 -3 -3 -3 -3 -3 -3 -3 -3 -2 -2 -1 -2 -2 -3 -3 -3 -2 -2 -2 -2 -2 -2 -2 -2 -2 -2
2 1 0 -0 -0 0 0 0 0 -0 -0 -0 -0 -0 -1 -2 -3 -3 -3 -3 -3 -3 -3 -3 -3 -2 -2 -1 -1 -1 -1 -1 -0 -0 -0 -0 -1 -1 -1 -1 -1 -1 -1 -1
2 1 0 -0 -0 -0 -0 0 0 0 -0 -0 0 -0 -1 -2 -3 -3 -3 -3 -3 -3 -2 -2 -2 -2 -2 -1 -1 -1 -1 -0 1 1 0 -0 -0 -0 -0 -1 -1 -1 -1 -1
1 1 0 -0 -0 0 0 0 0 0 0 1 1 0 -1 -2 -3 -3 -3 -3 -3 -2 -2 -1 -1 -1 -1 -1 -1 -1 -0 0 0 0 -0 -1 -1 -1 -1 -1 -0 -1 -1 -0
1 0 0 -0 0 0 0 0 1 1 1 1 1 1 -1 -2 -2 -2 -3 -3 -3 -2 -2 -1 -1 -1 -1 -1 -1 -0 -0 0 0 -0 -1 -1 -0 -0 0 0 0 0 1 1
-0 -0 -0 -0 -0 0 0 0 1 1 1 1 1 -0 -1 -2 -2 -2 -2 -3 -3 -2 -2 -2 -1 -1 -0 0 0 1 1 0 0 -0 -0 0 0 1 1 1 1 1 1 1
-0 -0 -0 -1 -0 -0 0 0 0 1 1 1 -0 -1 -2 -2 -2 -2 -2 -2 -3 -3 -2 -2 -2 -1 -0 0 0 1 1 1 0 0 0 1 1 1 1 1 2 2 2 2
0 -0 -0 -1 -0 -0 0 0 0 0 1 0 -1 -1 -1 -2 -2 -1 -1 -2 -2 -2 -3 -2 -2 -2 -1 -1 -0 -0 -0 0 0 0 1 1 0 1 1 1 2 3 3 3
0 -0 -0 -0 -0 -0 0 0 0 0 1 0 -1 -1 -1 -1 -1 -1 -1 -1 -2 -2 -2 -2 -2 -2 -1 -1 -1 -1 -0 0 0 1 1 2 3 3 4 4 5 6 7 8
0 0 -0 -0 0 0 1 1 0 0 0 -0 -1 -2 -1 -1 -1 -1 -1 -1 -2 -2 -2 -2 -1 -1 -0 0 0 0 1 2 3 4 5 6 7 8 9 10 10 11 11 12
0 0 0 0 0 1 1 1 0 0 -0 -1 -2 -2 -1 -1 -1 -1 -1 -1 -2 -2 -2 -1 -0 1 1 2 3 3 4 5 7 8 9 10 11 12 13 13 13 13 14 14
1 1 1 1 1 1 1 0 0 0 -1 -1 -2 -1 -1 -1 -1 -1 -2 -2 -2 -2 -1 -0 1 2 3 5 6 7 8 9 10 11 12 12 13 13 14 14 14 15 15 15
1 1 1 1 1 0 0 0 0 0 -0 -1 -1 -1 -1 -1 -1 -2 -2 -2 -1 -1 0 1 3 4 6 8 9 10 11 12 12 12 12 12 13 14 14 14 15 15 15 15
1 0 0 1 0 0 0 0 0 0 -0 -0 -1 -1 -1 -1 -1 -1 -1 -1 0 1 3 4 6 7 9 10 11 11 11 12 12 12 12 12 12 13 14 14 15 15 16 16
0 0 0 0 0 0 0 0 0 0 0 -0 -1 -1 -1 -1 -1 -1 -0 0 2 3 5 7 8 10 10 11 11 11 11 11 12 12 12 12 12 13 13 14 15 15 15 16